Lampasas, TX

9:46 AM CDT on June 28, 2017 (GMT -0500)
Lampasas

Weather History for KLZZ - January, 2013

Change the Weather History Date:

Wednesday, January 9, 2013

  Actual Average (KGRK) Record (KGRK)
Temperature  
Mean Temperature 48 °F -  
Max Temperature 123 °F 58 °F 78 °F (2003)
Min Temperature -27 °F 38 °F 28 °F (1999)
Degree Days  
Heating Degree Days 17    
Moisture  
Dew Point 38 °F    
Average Humidity 96    
Maximum Humidity 100    
Minimum Humidity 86    
Precipitation  
Precipitation 1.29 in - - ()
Sea Level Pressure  
Sea Level Pressure 29.97 in    
Wind  
Wind Speed 8 mph (North)    
Max Wind Speed 17 mph    
Max Gust Speed 26 mph    
Visibility 7 miles    
Events Fog , Rain    
Averages and records for this station are not official NWS values.
T = Trace of Precipitation, MM = Missing Value Source: NWS Daily Summary

Daily Weather History Graph

Daily Weather History Graph

Search for Another Location

Airport or City:

Trip Planner

Search our weather history database for the weather conditions in past years. The results will help you decide how hot, cold, wet, or windy it might be!

Date:

Astronomy

Jan. 09, 2013 Rise Set
Actual Time 7:32 AM CST 5:48 PM CST
Civil Twilight 7:05 AM CST 6:14 PM CST
Nautical Twilight 6:35 AM CST 6:44 PM CST
Astronomical Twilight 6:06 AM CST 7:13 PM CST
Moon 5:12 AM CST (1/9) 3:51 PM CST (1/9)
Length of Visible Light 11h 08m
Length of Day
10h 15m
Waning Crescent, 6% of the Moon is Illuminated
Jan 9
Waning Crescent
Jan 11
New
Jan 18
First Quarter
Jan 26
Full
Feb 3
Last Quarter

Hourly Weather History & Observations

Time (CST) Temp. Windchill Dew Point Humidity Pressure Visibility Wind Dir Wind Speed Gust Speed Precip Events Conditions
12:15 AM 50.0 °F - 48.2 °F 94% 30.01 in 7.0 mi North 5.8 mph - 0.05 in Rain Rain
12:35 AM 50.0 °F - 48.2 °F 94% 29.99 in 10.0 mi North 9.2 mph - 0.07 in Rain Light Rain
12:55 AM 41.0 °F 36.4 °F 41.0 °F 100% 30.00 in 10.0 mi North 6.9 mph - 0.10 in Rain Rain
1:15 AM 39.2 °F 33.0 °F 37.4 °F 93% 29.98 in 7.0 mi North 9.2 mph - 0.05 in Rain Rain
1:35 AM 41.0 °F 35.8 °F 41.0 °F 100% 29.99 in 10.0 mi North 8.1 mph - 0.06 in Rain Light Rain
2:15 AM 24.8 °F 16.1 °F 23.0 °F 93% 30.03 in 7.0 mi ENE 8.1 mph - 0.06 in Rain Light Freezing Rain
2:35 AM 6.8 °F -7.8 °F 5.0 °F 92% 30.01 in 5.0 mi NNE 10.4 mph - 0.16 in Rain Light Freezing Rain
2:55 AM -4.0 °F -20.2 °F -5.8 °F 92% 30.01 in 7.0 mi North 9.2 mph - 0.23 in Rain Light Freezing Rain
3:15 AM -14.8 °F -36.6 °F -14.8 °F 100% 30.01 in 10.0 mi North 12.7 mph 17.3 mph 0.05 in Rain Light Freezing Rain
3:35 AM -5.8 °F -24.4 °F -5.8 °F 100% 30.01 in 7.0 mi North 11.5 mph 18.4 mph 0.09 in Rain Light Freezing Rain
3:55 AM -13.0 °F -32.4 °F -14.8 °F 92% 30.00 in 5.0 mi North 10.4 mph 18.4 mph 0.17 in Rain Light Freezing Rain
4:15 AM -23.8 °F -49.8 °F -25.6 °F 91% 29.99 in 7.0 mi North 15.0 mph 20.7 mph 0.04 in Rain Light Freezing Rain
4:35 AM -27.4 °F -54.5 °F -27.4 °F 100% 29.97 in 7.0 mi North 15.0 mph 21.9 mph 0.11 in Rain Light Freezing Rain
4:55 AM -22.0 °F -45.7 °F -23.8 °F 91% 29.97 in 10.0 mi NNE 12.7 mph 19.6 mph 0.12 in Rain Light Freezing Rain
5:15 AM -2.2 °F -21.5 °F -4.0 °F 92% 29.98 in 10.0 mi NNE 13.8 mph 21.9 mph N/A Rain Light Freezing Rain
5:35 AM 10.4 °F -3.3 °F 10.4 °F 100% 29.98 in 10.0 mi NNE 10.4 mph 17.3 mph 0.02 in Rain Light Freezing Rain
5:55 AM 15.8 °F 4.2 °F 14.0 °F 93% 29.97 in 10.0 mi North 9.2 mph - 0.03 in Rain Light Freezing Rain
6:15 AM 17.6 °F 5.7 °F 14.0 °F 86% 29.98 in 10.0 mi NNE 10.4 mph - N/A   Light Freezing Rain
6:35 AM 12.2 °F 0.7 °F 10.4 °F 92% 29.99 in 10.0 mi NNE 8.1 mph - N/A   Light Freezing Rain
7:15 AM 123.8 °F - 120.2 °F 90% 29.99 in 10.0 mi NNE 10.4 mph - 0.01 in Rain Rain
7:35 AM - - - N/A% 30.00 in 7.0 mi NNE 11.5 mph - 0.05 in Rain Rain
7:55 AM - - - N/A% 30.02 in 5.0 mi NNE 15.0 mph 20.7 mph 0.11 in Rain Rain
8:15 AM 41.0 °F 33.9 °F 41.0 °F 100% 30.01 in 7.0 mi NNE 12.7 mph 26.5 mph 0.03 in Rain Rain
8:35 AM 44.6 °F 37.8 °F 42.8 °F 93% 30.01 in 10.0 mi NNE 15.0 mph 24.2 mph 0.04 in Rain Rain
8:55 AM 57.2 °F - 55.4 °F 94% 30.02 in 7.0 mi North 11.5 mph 18.4 mph 0.06 in Rain Rain
9:15 AM 42.8 °F 37.0 °F 41.0 °F 93% 30.03 in 10.0 mi North 10.4 mph 17.3 mph 0.01 in Rain Rain
9:35 AM 46.4 °F 41.9 °F 44.6 °F 93% 30.02 in 10.0 mi North 9.2 mph - 0.01 in Rain Light Rain
10:15 AM 50.0 °F - 48.2 °F 94% 30.00 in 7.0 mi North 11.5 mph - 0.01 in Rain Rain
10:35 AM 50.0 °F - 48.2 °F 94% 30.00 in 7.0 mi North 9.2 mph - 0.02 in Rain Heavy Rain
11:15 AM 50.0 °F - 48.2 °F 94% 29.98 in 5.0 mi North 10.4 mph - 0.02 in Rain Heavy Rain
11:35 AM 50.0 °F - 48.2 °F 94% 29.97 in 3.0 mi North 8.1 mph - 0.07 in Rain Rain
11:55 AM 50.0 °F - 48.2 °F 94% 29.99 in 2.5 mi NNW 4.6 mph - 0.11 in Rain Rain
12:15 PM 50.0 °F - 48.2 °F 94% 29.98 in 2.5 mi WNW 3.5 mph - 0.05 in Rain Rain
12:35 PM 50.0 °F - 48.2 °F 94% 29.97 in 4.0 mi West 5.8 mph - 0.13 in Rain Rain
12:55 PM 50.0 °F - 48.2 °F 94% 29.97 in 2.5 mi West 5.8 mph - 0.18 in Rain Heavy Rain
1:15 PM 50.0 °F - 50.0 °F 100% 29.97 in 4.0 mi West 3.5 mph - 0.04 in Rain Rain
1:35 PM 51.8 °F - 50.0 °F 94% 29.96 in 3.0 mi West 5.8 mph - 0.06 in Rain Rain
1:55 PM 51.8 °F - 50.0 °F 94% 29.93 in 2.5 mi NNW 8.1 mph - 0.08 in   Heavy Drizzle
2:15 PM 51.8 °F - 51.8 °F 100% 29.84 in 10.0 mi North 17.3 mph 21.9 mph N/A Rain Light Rain
2:35 PM 53.6 °F - 51.8 °F 94% 29.85 in 10.0 mi North 11.5 mph 18.4 mph N/A   Scattered Clouds
2:55 PM 53.6 °F - 53.6 °F 100% 29.84 in 10.0 mi North 11.5 mph 20.7 mph N/A   Scattered Clouds
3:15 PM 53.6 °F - 53.6 °F 100% 29.87 in 10.0 mi North 10.4 mph - N/A   Overcast
3:35 PM 53.6 °F - 53.6 °F 100% 29.89 in 10.0 mi Calm Calm - N/A   Overcast
3:55 PM 53.6 °F - 53.6 °F 100% 29.91 in 2.5 mi Calm Calm - N/A Rain Rain
4:15 PM 53.6 °F - 53.6 °F 100% 29.89 in 1.5 mi Calm Calm - N/A   Drizzle
4:35 PM 50.0 °F - 50.0 °F 100% 29.92 in 1.8 mi Calm Calm - N/A   Light Drizzle
4:55 PM 53.6 °F - 53.6 °F 100% 29.92 in 1.2 mi Calm Calm - N/A   Overcast
5:15 PM 53.6 °F - 53.6 °F 100% 29.93 in 0.8 mi Calm Calm - N/A   Overcast
5:35 PM 55.4 °F - 53.6 °F 94% 29.95 in 1.2 mi SSW 3.5 mph - 0.01 in   Overcast
5:55 PM 60.8 °F - 60.8 °F 100% 29.95 in 1.8 mi Calm Calm - 0.01 in   Overcast
6:15 PM 51.8 °F - 50.0 °F 94% 29.96 in 10.0 mi SSW 4.6 mph - N/A   Overcast
6:35 PM 51.8 °F - 51.8 °F 100% 29.97 in 10.0 mi SW 5.8 mph - N/A   Overcast
6:55 PM 53.6 °F - 51.8 °F 94% 29.97 in 10.0 mi SW 8.1 mph - N/A   Overcast
7:15 PM 53.6 °F - 51.8 °F 94% 29.97 in 10.0 mi SW 5.8 mph - N/A   Overcast
7:35 PM 51.8 °F - 51.8 °F 100% 29.97 in 10.0 mi Calm Calm - N/A   Overcast
7:55 PM 51.8 °F - 51.8 °F 100% 29.97 in 10.0 mi Calm Calm - N/A   Overcast
8:35 PM 53.6 °F - 53.6 °F 100% 29.97 in 10.0 mi Calm Calm - N/A   Overcast
8:55 PM 51.8 °F - 51.8 °F 100% 29.97 in 5.0 mi Calm Calm - N/A   Overcast
9:15 PM 51.8 °F - 50.0 °F 94% 29.97 in 5.0 mi Calm Calm - N/A   Overcast
9:35 PM 51.8 °F - 51.8 °F 100% 29.97 in 7.0 mi Calm Calm - N/A Rain Light Rain
9:55 PM 51.8 °F - 51.8 °F 100% 29.98 in 10.0 mi Calm Calm - N/A   Overcast
10:15 PM 51.8 °F - 51.8 °F 100% 29.98 in 7.0 mi Calm Calm - N/A   Mostly Cloudy
10:35 PM 51.8 °F - 51.8 °F 100% 30.00 in 5.0 mi SSE 3.5 mph - N/A   Overcast
10:55 PM 51.8 °F - 51.8 °F 100% 30.00 in 4.0 mi Calm Calm - N/A   Overcast
11:15 PM 51.8 °F - 51.8 °F 100% 29.99 in 3.0 mi Calm Calm - N/A   Mostly Cloudy
11:35 PM 50.0 °F - 48.2 °F 94% 30.00 in 0.5 mi Calm Calm - N/A Fog Fog
11:55 PM 50.0 °F - 50.0 °F 100% 30.00 in 1.0 mi Calm Calm - N/A   Mostly Cloudy